Havre, MT

4:35 AM MST on February 26, 2017 (GMT -0700)
Havre City-County

Weather History for KHVR - April, 2014

Change the Weather History Date:

Wednesday, April 9, 2014

  Actual Average Record
Temperature  
Mean Temperature 43 °F 42 °F  
Max Temperature 57 °F 56 °F 81 °F (1996)
Min Temperature 28 °F 29 °F 9 °F (2013)
Degree Days  
Heating Degree Days 22 23  
Month to date heating degree days 204 216  
Since 1 July heating degree days 7607 7334  
Cooling Degree Days 0 0  
Month to date cooling degree days 0 0  
Year to date cooling degree days 0 0  
Moisture  
Dew Point 27 °F    
Average Humidity 51    
Maximum Humidity 78    
Minimum Humidity 24    
Precipitation  
Precipitation T in 0.02 in 0.36 in (1887)
Month to date precipitation T 0.20  
Year to date precipitation 1.80 1.35  
Snow  
Snow 0.00 in 0.10 in 9.10 in (1933)
Month to date snowfall 0.0 1.3  
Since 1 July snowfall 44.4 35.5  
Snow Depth 0.00 in    
Sea Level Pressure  
Sea Level Pressure 29.85 in    
Wind  
Wind Speed 12 mph (WNW)    
Max Wind Speed 29 mph    
Max Gust Speed 37 mph    
Visibility 10 miles    
Events Rain    
T = Trace of Precipitation, MM = Missing Value Source: NWS Daily Summary

Daily Weather History Graph

Daily Weather History Graph

Search for Another Location

Airport or City:

Trip Planner

Search our weather history database for the weather conditions in past years. The results will help you decide how hot, cold, wet, or windy it might be!

Date:

Astronomy

Apr. 09, 2014 Rise Set
Actual Time 6:40 AM MDT 8:01 PM MDT
Civil Twilight 6:08 AM MDT 8:34 PM MDT
Nautical Twilight 5:28 AM MDT 9:13 PM MDT
Astronomical Twilight 4:46 AM MDT 9:56 PM MDT
Moon 2:29 PM MDT (4/9) 3:56 AM MDT (4/9)
Length of Visible Light 14h 26m
Length of Day
13h 21m
Waxing Gibbous, 72% of the Moon is Illuminated
Apr 9
Waxing Gibbous
Apr 15
Full
Apr 22
Last Quarter
Apr 29
New
May 6
First Quarter

Hourly Weather History & Observations

Time (MDT) Temp. Windchill Dew Point Humidity Pressure Visibility Wind Dir Wind Speed Gust Speed Precip Events Conditions
6:53 AM 50.0 °F - 30.9 °F 48% 29.62 in 10.0 mi SSW 18.4 mph - N/A   Mostly Cloudy
7:53 AM 51.1 °F - 33.1 °F 50% 29.68 in 10.0 mi West 16.1 mph 26.5 mph N/A   Mostly Cloudy
8:39 AM 46.0 °F 38.8 °F 30.0 °F 54% 29.74 in 10.0 mi NNW 18.4 mph 36.8 mph N/A   Overcast
8:53 AM 44.1 °F 35.9 °F 30.9 °F 60% 29.77 in 10.0 mi NNW 19.6 mph 31.1 mph 0.00 in Rain Light Rain
9:53 AM 44.1 °F 35.4 °F 30.9 °F 60% 29.86 in 10.0 mi NNW 21.9 mph 27.6 mph 0.00 in   Overcast
10:53 AM 44.1 °F 37.4 °F 28.9 °F 55% 29.88 in 10.0 mi North 13.8 mph 21.9 mph N/A   Overcast
11:53 AM 45.0 °F 40.1 °F 30.0 °F 56% 29.88 in 10.0 mi WNW 9.2 mph - N/A   Overcast
12:53 PM 48.0 °F - 27.0 °F 44% 29.90 in 10.0 mi NW 10.4 mph - N/A   Overcast
1:53 PM 50.0 °F - 25.0 °F 38% 29.89 in 10.0 mi WNW 12.7 mph 23.0 mph N/A   Overcast
2:53 PM 55.0 °F - 21.9 °F 28% 29.88 in 10.0 mi West 17.3 mph - N/A   Partly Cloudy
3:53 PM 57.0 °F - 21.0 °F 25% 29.86 in 10.0 mi West 20.7 mph 25.3 mph N/A   Mostly Cloudy
4:53 PM 54.0 °F - 21.0 °F 28% 29.86 in 10.0 mi West 19.6 mph - N/A   Overcast
5:53 PM 55.0 °F - 21.9 °F 28% 29.85 in 10.0 mi West 18.4 mph 26.5 mph N/A   Overcast
6:53 PM 54.0 °F - 25.0 °F 33% 29.84 in 10.0 mi West 12.7 mph - N/A   Mostly Cloudy
7:53 PM 46.9 °F - 27.0 °F 46% 29.85 in 10.0 mi WSW 5.8 mph - N/A   Mostly Cloudy
8:53 PM 46.9 °F - 27.0 °F 46% 29.89 in 10.0 mi Variable 3.5 mph - N/A   Overcast
9:53 PM 41.0 °F - 26.1 °F 55% 29.91 in 10.0 mi Calm Calm - N/A   Partly Cloudy
10:53 PM 34.0 °F 29.8 °F 26.1 °F 73% 29.94 in 10.0 mi East 4.6 mph - N/A   Clear
11:53 PM 32.0 °F - 26.1 °F 79% 29.94 in 10.0 mi Calm Calm - N/A   Clear